Погода в Сан-Фернандо-дель-Валье-де-Катамарка

Аргентина     28°28′32″S   65°46′37″W
темп.,
°C
ветер,
м/с
пор.,
м/с
влажн.,
%
обл.,
%
осадки,
мм/ч
давл.,
гПа
погр.,
м
24 сентября, пт
пт2400:00+15св57330 0.0 102092
03:00+14св69360 0.0 1019125
06:00+14св711380 0.0 1019167
09:00+18св711320 0.0 1020632
12:00+24св87220 0.0 10181357
15:00+26св98200 0.0 10141647
18:00+25св1112230 0.0 10131346
21:00+19ссв813340 0.0 1015254
25 сентября, сб
сб2500:00+18св813360 0.0 1016257
03:00+17св813370 0.0 1014215
06:00+15ссв58410 0.0 1013103
09:00+21ссв69310 0.0 1013421
12:00+29ссв77200 0.0 10111079
15:00+31св87170 0.0 10061289
18:00+29ссв1011190 0.0 1005926
21:00+23ссв1015270 0.0 1007234
26 сентября, вс
вс2600:00+22ссв915290 0.0 1008221
03:00+19ссв45310 0.0 100857
06:00+17св33360 0.0 100818
09:00+22ююз11300 0.0 1012275
12:00+28ююз54220 0.0 1013955
15:00+31ююз43180 0.0 10091656
18:00+32св34190 0.0 10071871
21:00+22ссв22340 0.0 101021
27 сентября, пн
пн2700:00+20юв01380 0.0 101212
03:00+17ссв22450 0.0 101111
06:00+16ссв11510 0.0 101111
09:00+22юз11310 0.0 1013384
12:00+28юз34250 0.0 10111073
15:00+33св14200 0.0 10062024
18:00+33св76210 0.0 10051708
21:00+24с22360 0.0 100816
28 сентября, вт
вт2800:00+21всв11440 0.0 101111
03:00+20ссв22440 0.0 101111
06:00+17ю22500 0.0 101314
09:00+21ююз46360 0.0 1016456
12:00+27ююз55270 0.0 10141243
15:00+31юз44250 0.0 10101936
18:00+30вюв65341 0.0 10081356
21:00+22св345913 0.0 101249